Location: Wildlife_Club
(35.6000°N, 81.4330°W)
Time: 08:21:24
(UTC-04:00)

A-11 Canister half - Pass Details

Date: 01 July 2019
Orbit: 1514 x 1686 km, 47.2° (Epoch: 19 August)

Event Time Altitude Azimuth Distance (km) Brightness Sun altitude
Rises 09:54:13 0° 247° (WSW) 4,933 11.2 42.0°
Reaches altitude 10° 09:57:27 10° 250° (WSW) 3,941 10.8 42.7°
Maximum altitude 10:07:32 67° 332° (NNW) 1,779 9.9 44.7°
Drops below altitude 10° 10:17:24 10° 55° (NE) 3,851 11.8 46.7°
Sets 10:20:31 0° 58° (ENE) 4,815 12.1 47.4°
